sat.trackr.live / text

‹ back to catalog

STARLINK-37070

NORAD 68280 · 2026-055U

PAYLOAD ACTIVE UNKNOWN

§ Identity

Operator
Country
US
Launch date
2026-03-19
Launch site
AFETR
Launch vehicle
Mass (kg)
RCS (m²)

Purposes: comms

External: N2YO · Heavens-Above · Gunter

§ Orbital elements

Epoch: 2026-09-20T02:14:05.995680Z

Period
93.85 min
Inclination
53.1591°
Eccentricity
0.0000679
Mean motion
15.34414409 rev/d
Perigee alt
462.2 km
Apogee alt
463.1 km
Semi-major
6,840.8 km
B*
6.3871e-4
RAAN
131.3846°
Arg perigee
88.8107°
Mean anomaly
271.2973°
Rev number
2,976

§ Raw data

STARLINK-370701 68280U 26055U   26263.09312495  .00021275  00000+0  63871-3 0  99982 68280  53.1591 131.3846 0000679  88.8107 271.2973 15.34414409 29760

JSON: /api/v1/satellites/68280 · /tle

For live sub-satellite position, see the globe view (requires WebGL).

§ Visibility from observer

Set your observer location to see the next 7 days of passes ≥ 10°. The values pass through the URL so the page stays shareable.

No JS? Fill the form by hand. The geolocation button needs JavaScript.